Tracking 19909 objects as of 22-Oct-2019
HD Live streaming from Space Station
objects crossing your sky now

COSMOS 1275 DEB

Track COSMOS 1275 DEB now!
10-day predictions


NORAD ID: 42166
Int'l Code: 1981-053SE
Perigee: 840.1 km
Apogee: 1,065.9 km
Inclination: 82.9 °
Period: 104.0 minutes
Semi major axis: 7324 km
RCS: Unknown
Launch date: June 4, 1981
Source: Commonwealth of Independent States (former USSR) (CIS)
Launch site: PLESETSK MISSILE AND SPACE COMPLEX (PKMTR)

Note: This is SATELLITE DEBRIS
aabbcc
Your satellite tracking list
Your tracking list is empty




NASA's NSSDC Master Catalog

Two Line Element Set (TLE):
1 42166U 81053SE  19295.33818399  .00000842  00000-0  66772-3 0  9991
2 42166  82.8917 307.0891 0154169 289.8304  68.6295 13.85088900298562
Source of the keplerian elements: AFSPC